[[{"header":{"parameterUnit":"m.s-1","parameterCategory":1,"la1":30.2991,"la2":30.254,"lo1":-89.0895,"lo2":-89.0444,"dy":0.0017,"dx":0.0017,"nx":28,"ny":28,"refTime":"2024-10-04T09:00:00:Z","depth":0,"parameterNumber":2,"parameterNumberName":"U-component_of_WINDS"},"data":[0,0,0,0,0,0,0,0,0,0,0,0,0,0,0,0,0,0,0,0,0,0,0,0,0,0,0,0,0,0,0,0,0,0,0,0,0,0,0,0,0,0,0,0,0,0,0,0,0,0,0,0,0,0,0,0,0,0,-2.2515,-2.2516,0,-2.2673,-2.2675,-2.2677,-2.2698,-2.2696,-2.2695,-2.2693,-2.2861,-2.2867,-2.2873,0,0,0,0,0,0,0,0,0,0,0,0,0,-2.2234,-2.2239,-2.2514,-2.2517,-2.2518,-2.2673,-2.2675,-2.2678,-2.2698,-2.2696,-2.2694,-2.2693,-2.2859,-2.2866,-2.2873,0,0,0,0,0,0,0,0,0,0,0,0,0,-2.2371,-2.224,-2.2514,-2.2547,-2.2552,-2.2673,-2.2675,-2.2678,-2.2698,-2.2696,-2.2694,-2.2692,-2.2857,-2.2866,-2.2874,-2.2975,0,0,-2.2901,-2.2905,0,0,0,0,0,0,0,0,-2.2363,-2.2381,-2.254,-2.2545,-2.255,-2.2663,-2.2638,-2.2778,-2.2699,-2.2643,-2.2693,-2.2691,-2.2798,-2.2811,-2.2846,-2.2983,-2.299,-2.2902,-2.2907,-2.2911,-2.2914,0,0,0,0,0,0,0,-2.2353,-2.2374,-2.2578,-2.2543,-2.2549,-2.2556,-2.2573,-2.2665,-2.2731,-2.2648,-2.265,-2.2668,-2.28,-2.2838,-2.285,-2.2992,-2.2902,-2.291,-2.2915,-2.2919,-2.322,-2.3223,0,0,0,0,0,0,-2.2337,-2.2366,-2.2573,-2.2582,-2.2449,-2.2563,-2.2581,-2.263,-2.273,-2.2743,-2.267,-2.2668,-2.2824,-2.284,-2.2856,-2.2982,-2.2911,-2.2919,-2.2925,-2.3218,-2.3221,-2.3224,0,0,0,0,0,0,-2.2331,-2.2355,-2.2566,-2.2475,-2.2502,-2.257,-2.2624,-2.2634,-2.2672,-2.2747,-2.2759,-2.2695,-2.2822,-2.2844,-2.2945,-2.2988,-2.2923,-2.2932,-2.3215,-2.3219,-2.3223,-2.3232,0,0,0,0,0,0,-2.2323,-2.2353,-2.2391,-2.2475,-2.2507,-2.2651,-2.2626,-2.2639,-2.2686,-2.2686,-2.2775,-2.2787,-2.2822,-2.2932,-2.2954,-2.2999,-2.2938,-2.3211,-2.3216,-2.3221,-2.3228,-2.3236,-2.3243,0,0,0,0,0,-2.2313,-2.2388,-2.2393,-2.2417,-2.2555,-2.2653,-2.2671,-2.2709,-2.2689,-2.2729,-2.2777,-2.2784,-2.2979,-2.2942,-2.2967,-2.3015,-2.3209,-2.3215,-2.3221,-2.3225,-2.3235,-2.3242,0,0,0,0,0,0,-2.2309,-2.24,-2.2406,-2.2511,-2.2574,-2.2656,-2.2708,-2.2718,-2.2789,-2.2786,-2.2831,-2.2851,-2.295,-2.2993,-2.295,-2.3118,-2.3092,-2.3104,-2.3087,-2.3097,-2.3103,-2.3092,-2.2946,0,0,0,0,0,-2.232,-2.239,-2.2466,-2.2552,-2.2583,-2.2639,-2.2684,-2.2707,-2.2775,-2.2802,-2.2858,-2.2925,-2.3002,-2.3051,-2.3126,-2.3234,-2.3255,-2.328,-2.3287,-2.3292,-2.3302,-2.3364,-2.3376,-2.3244,-2.3244,-2.3244,0,0,-2.2344,-2.2403,-2.2445,-2.2552,-2.2604,-2.2677,-2.2662,-2.274,-2.2796,-2.2815,-2.2914,-2.2957,-2.3035,-2.314,-2.3189,-2.3179,-2.3343,-2.33,-2.3304,-2.3311,-2.3371,-2.3384,-2.3395,-2.3248,-2.3247,-2.3247,0,0,-2.2426,-2.2477,-2.2553,-2.2605,-2.2683,-2.272,-2.2738,-2.2819,-2.2848,-2.2947,-2.2963,-2.303,-2.3161,-2.3216,-2.3261,-2.3362,-2.3372,-2.3386,-2.3424,-2.3483,-2.3494,-2.3503,-2.3541,-2.3554,-2.3395,-2.3395,-2.3395,0,-2.2447,-2.2557,-2.2592,-2.267,-2.2717,-2.2735,-2.2814,-2.2863,-2.2962,-2.2995,-2.2981,-2.3145,-2.3199,-2.3318,-2.3342,-2.3378,-2.3402,-2.3377,-2.3489,-2.3499,-2.3508,-2.3545,-2.3559,-2.3396,-2.3396,-2.3396,-2.3396,0,-2.258,-2.2655,-2.2708,-2.2801,-2.2854,-2.2932,-2.2981,-2.3031,-2.3049,-2.3088,-2.3189,-2.3254,-2.3342,-2.3372,-2.3391,-2.3494,-2.3485,-2.3479,-2.3454,-2.3521,-2.3556,-2.3571,-2.3398,-2.3397,-2.3397,-2.3397,0,0,-2.2666,-2.2776,-2.2795,-2.2837,-2.2923,-2.2984,-2.3063,-2.3147,-2.3189,-2.3257,-2.3325,-2.3435,-2.3429,-2.3481,-2.3506,-2.3558,-2.3636,-2.3546,-2.3549,-2.3562,-2.3755,-2.376,-2.3776,-2.3642,-2.3645,-2.3647,-2.3749,0,-2.2759,-2.2899,-2.2932,-2.3053,-2.3124,-2.3141,-2.321,-2.3272,-2.331,-2.3377,-2.342,-2.3497,-2.3484,-2.3515,-2.3567,-2.3615,-2.3676,-2.3608,-2.3709,-2.3712,-2.369,-2.3794,-2.38,-2.3893,-2.3763,-2.3765,-2.3767,0,-2.2887,-2.2955,-2.3081,-2.3158,-2.3189,-2.3251,-2.3331,-2.3394,-2.3464,-2.3488,-2.3544,-2.3565,-2.3649,-2.3618,-2.3737,-2.369,-2.3733,-2.3763,-2.3768,-2.378,-2.3745,-2.3811,-2.3923,-2.3938,-2.3789,-2.3787,-2.3785,0,-2.2939,-2.3062,-2.3154,-2.3189,-2.3281,-2.3324,-2.3364,-2.3432,-2.348,-2.355,-2.3583,-2.3662,-2.3707,-2.3769,-2.3811,-2.3784,-2.3926,-2.3898,-2.3951,-2.395,-2.3982,-2.3979,-2.4104,-2.4006,-2.4006,-2.4005,-2.4005,0,-2.3041,-2.3118,-2.3178,-2.3235,-2.3322,-2.336,-2.3447,-2.3488,-2.3547,-2.3614,-2.3634,-2.3696,-2.3747,-2.3816,-2.3849,-2.3943,-2.3963,-2.3986,-2.3995,-2.3986,-2.3983,-2.4016,-2.4011,-2.4009,-2.4008,-2.4008,-2.4007,0,-2.3115,-2.3158,-2.3259,-2.3336,-2.3358,-2.3419,-2.3486,-2.3543,-2.358,-2.3664,-2.3686,-2.3747,-2.3829,-2.3876,-2.3981,-2.4004,-2.4109,-2.4113,-2.4084,-2.4089,-2.4138,-2.4134,-2.4291,-2.4314,-2.4198,-2.4199,-2.42,0,-2.3178,-2.3237,-2.332,-2.3365,-2.3405,-2.3477,-2.3526,-2.3566,-2.3617,-2.37,-2.3747,-2.3831,-2.39,-2.4032,-2.4086,-2.4167,-2.4175,-2.4224,-2.4187,-2.4176,-2.4177,-2.4174,-2.4181,-2.4231,-2.4232,-2.4233,-2.4233,0,-2.3286,-2.3304,-2.3372,-2.3448,-2.3505,-2.3568,-2.363,-2.3666,-2.3716,-2.3772,-2.3856,-2.3909,-2.4015,-2.4099,-2.4183,-2.4227,-2.424,-2.4244,-2.4261,-2.4253,-2.4235,-2.4247,-2.4104,-2.4241,-2.424,-2.424,-2.4239,-2.4239,-2.3358,-2.3412,-2.3478,-2.3554,-2.3604,-2.3661,-2.3718,-2.3762,-2.3832,-2.392,-2.3939,-2.4028,-2.4097,-2.4212,-2.4257,-2.4329,-2.432,-2.4344,-2.435,-2.4356,-2.4358,-2.4221,-2.4344,-2.4344,-2.4344,-2.4344,-2.4344,0,-2.3468,-2.3511,-2.358,-2.3665,-2.3725,-2.3728,-2.3797,-2.3847,-2.3924,-2.3987,-2.4053,-2.415,-2.4231,-2.4291,-2.4374,-2.4419,-2.4427,-2.444,-2.4438,-2.4448,-2.4361,-2.4339,-2.4432,-2.4432,-2.4432,-2.4432,-2.4432,-2.4432,-2.3533,-2.3624,-2.365,-2.3766,-2.3809,-2.3895,-2.3934,-2.3987,-2.4037,-2.4143,-2.4209,-2.4247,-2.4309,-2.4396,-2.4471,-2.4487,-2.4518,-2.453,-2.4547,-2.4464,-2.4455,-2.4446,-2.4425,-2.4536,-2.4536,-2.4629,-2.463,-2.463]},{"header":{"parameterUnit":"m.s-1","parameterCategory":1,"la1":30.2991,"la2":30.254,"lo1":-89.0895,"lo2":-89.0444,"dy":0.0017,"dx":0.0017,"nx":28,"ny":28,"refTime":"2024-10-04T09:00:00:Z","depth":0,"parameterNumber":3,"parameterNumberName":"V-component_of_WINDS"},"data":[0,0,0,0,0,0,0,0,0,0,0,0,0,0,0,0,0,0,0,0,0,0,0,0,0,0,0,0,0,0,0,0,0,0,0,0,0,0,0,0,0,0,0,0,0,0,0,0,0,0,0,0,0,0,0,0,0,0,-3.2791,-3.2793,0,-3.2941,-3.2943,-3.2945,-3.2931,-3.2929,-3.2927,-3.2924,-3.308,-3.3086,-3.3093,0,0,0,0,0,0,0,0,0,0,0,0,0,-3.2496,-3.2502,-3.2791,-3.2793,-3.2795,-3.2941,-3.2943,-3.2945,-3.2932,-3.2929,-3.2926,-3.2923,-3.3078,-3.3086,-3.3093,0,0,0,0,0,0,0,0,0,0,0,0,0,-3.2633,-3.2503,-3.2791,-3.2806,-3.2808,-3.2941,-3.2943,-3.2946,-3.2932,-3.2929,-3.2925,-3.2922,-3.3076,-3.3085,-3.3094,-3.3222,0,0,-3.3123,-3.3127,0,0,0,0,0,0,0,0,-3.2625,-3.2644,-3.2802,-3.2805,-3.2808,-3.2914,-3.2896,-3.3039,-3.2933,-3.2885,-3.2924,-3.292,-3.3028,-3.3041,-3.3077,-3.3229,-3.3236,-3.3124,-3.313,-3.3134,-3.3136,0,0,0,0,0,0,0,-3.2616,-3.2637,-3.2851,-3.2804,-3.2808,-3.2806,-3.2822,-3.2923,-3.2974,-3.2889,-3.2889,-3.2906,-3.3029,-3.3068,-3.308,-3.3238,-3.3124,-3.3132,-3.3138,-3.3142,-3.3507,-3.3511,0,0,0,0,0,0,-3.2602,-3.263,-3.2846,-3.2855,-3.2706,-3.2814,-3.2832,-3.2884,-3.2973,-3.2983,-3.2909,-3.2905,-3.3053,-3.3069,-3.3086,-3.3244,-3.3134,-3.3143,-3.3148,-3.3503,-3.3508,-3.3513,0,0,0,0,0,0,-3.2596,-3.2622,-3.284,-3.2742,-3.277,-3.2823,-3.2881,-3.2888,-3.2927,-3.2988,-3.2998,-3.2939,-3.3051,-3.3073,-3.3189,-3.3249,-3.3147,-3.3155,-3.3499,-3.3505,-3.3511,-3.3559,0,0,0,0,0,0,-3.2588,-3.262,-3.2668,-3.2743,-3.2775,-3.2939,-3.2885,-3.2894,-3.2943,-3.2939,-3.3019,-3.3029,-3.305,-3.3175,-3.3198,-3.326,-3.3163,-3.3494,-3.3501,-3.3509,-3.3553,-3.3566,-3.3578,0,0,0,0,0,-3.2577,-3.2675,-3.267,-3.2696,-3.2836,-3.2942,-3.2961,-3.2983,-3.2948,-3.2998,-3.3038,-3.3026,-3.3239,-3.3187,-3.3213,-3.3279,-3.349,-3.3499,-3.3508,-3.3547,-3.3564,-3.3578,0,0,0,0,0,0,-3.2604,-3.2685,-3.268,-3.2805,-3.2867,-3.294,-3.3003,-3.2999,-3.3073,-3.3066,-3.3091,-3.311,-3.3228,-3.3265,-3.3206,-3.3409,-3.336,-3.3375,-3.3381,-3.3397,-3.3409,-3.3398,-3.3171,0,0,0,0,0,-3.2625,-3.2704,-3.277,-3.2874,-3.2906,-3.2949,-3.2996,-3.3008,-3.3074,-3.31,-3.3148,-3.3213,-3.3295,-3.3348,-3.3426,-3.3558,-3.3577,-3.3617,-3.3629,-3.3639,-3.3652,-3.3729,-3.3748,-3.3543,-3.3543,-3.3542,0,0,-3.2668,-3.2722,-3.277,-3.2881,-3.293,-3.3013,-3.2971,-3.3059,-3.3122,-3.3113,-3.3227,-3.3265,-3.3339,-3.3465,-3.3523,-3.35,-3.3713,-3.3651,-3.3659,-3.3666,-3.374,-3.3759,-3.3777,-3.3549,-3.3548,-3.3547,0,0,-3.2789,-3.2837,-3.293,-3.2981,-3.3057,-3.3086,-3.3108,-3.3182,-3.3207,-3.3322,-3.3318,-3.3393,-3.3532,-3.3587,-3.3632,-3.3778,-3.3772,-3.3803,-3.387,-3.3944,-3.396,-3.3975,-3.4029,-3.4048,-3.3815,-3.3815,-3.3816,0,-3.2833,-3.2957,-3.2978,-3.3069,-3.3119,-3.3116,-3.3212,-3.326,-3.3358,-3.3394,-3.3366,-3.3544,-3.3593,-3.3733,-3.3769,-3.3805,-3.3834,-3.3794,-3.3956,-3.3971,-3.3984,-3.4037,-3.4057,-3.3819,-3.3819,-3.3818,-3.3818,0,-3.3009,-3.3095,-3.3161,-3.3256,-3.3314,-3.3406,-3.3444,-3.35,-3.3508,-3.3541,-3.3659,-3.3719,-3.3811,-3.3845,-3.3853,-3.3988,-3.3972,-3.395,-3.3901,-3.4007,-3.4057,-3.4077,-3.3824,-3.3823,-3.3822,-3.3821,0,0,-3.3149,-3.3257,-3.3281,-3.3326,-3.3411,-3.3478,-3.3573,-3.3662,-3.3711,-3.378,-3.3861,-3.3981,-3.3962,-3.4014,-3.4029,-3.4094,-3.421,-3.4065,-3.4067,-3.4092,-3.4365,-3.4382,-3.4405,-3.4206,-3.4209,-3.4213,-3.436,0,-3.328,-3.3445,-3.3469,-3.3616,-3.3698,-3.3698,-3.378,-3.3843,-3.3876,-3.3952,-3.3989,-3.4075,-3.4043,-3.4075,-3.4139,-3.4182,-3.4265,-3.4171,-3.4284,-3.4287,-3.4266,-3.443,-3.4448,-3.4583,-3.4379,-3.4382,-3.4385,0,-3.3454,-3.3528,-3.3683,-3.376,-3.3796,-3.3869,-3.3955,-3.4027,-3.4099,-3.4119,-3.4179,-3.4187,-3.4287,-3.4234,-3.4374,-3.431,-3.4357,-3.4386,-3.4392,-3.4404,-3.4343,-3.4449,-3.4627,-3.4648,-3.4415,-3.4413,-3.4411,0,-3.3544,-3.3682,-3.3794,-3.3832,-3.3924,-3.3976,-3.4017,-3.4085,-3.4139,-3.4215,-3.4251,-3.4338,-3.4386,-3.4454,-3.4486,-3.4444,-3.4626,-3.4574,-3.4647,-3.4647,-3.4686,-3.4683,-3.4876,-3.4714,-3.4714,-3.4714,-3.4713,0,-3.3688,-3.3783,-3.3836,-3.3904,-3.4013,-3.404,-3.4147,-3.4187,-3.4249,-3.4327,-3.4332,-3.4406,-3.4443,-3.4523,-3.4549,-3.4663,-3.4684,-3.4706,-3.4712,-3.4706,-3.4704,-3.4738,-3.473,-3.4719,-3.4718,-3.4717,-3.4716,0,-3.3805,-3.3844,-3.3966,-3.4044,-3.4067,-3.4143,-3.4211,-3.4279,-3.4313,-3.4413,-3.4438,-3.4492,-3.4587,-3.4626,-3.4742,-3.476,-3.4892,-3.489,-3.4868,-3.487,-3.4942,-3.4936,-3.5165,-3.5198,-3.5013,-3.5014,-3.5016,0,-3.3895,-3.3969,-3.4056,-3.4109,-3.4151,-3.4236,-3.4292,-3.4323,-3.4381,-3.4471,-3.4529,-3.4624,-3.4702,-3.4854,-3.4905,-3.4996,-3.4997,-3.5071,-3.501,-3.5004,-3.5001,-3.4997,-3.5006,-3.5083,-3.5085,-3.5086,-3.5087,0,-3.4051,-3.4068,-3.4147,-3.4235,-3.4301,-3.4372,-3.444,-3.4484,-3.4526,-3.4592,-3.4689,-3.475,-3.487,-3.4965,-3.5059,-3.5103,-3.5104,-3.5106,-3.5129,-3.5124,-3.5109,-3.5121,-3.49,-3.5101,-3.5099,-3.5098,-3.5098,-3.5097,-3.4159,-3.4226,-3.4299,-3.4388,-3.4444,-3.4509,-3.4578,-3.4622,-3.4703,-3.4803,-3.4817,-3.4923,-3.4997,-3.5123,-3.5172,-3.5256,-3.5237,-3.5269,-3.5277,-3.5285,-3.5291,-3.5095,-3.5273,-3.5273,-3.5272,-3.5272,-3.5272,0,-3.4317,-3.4365,-3.4447,-3.4544,-3.4615,-3.4609,-3.4686,-3.4747,-3.4839,-3.4908,-3.4985,-3.5099,-3.5193,-3.5253,-3.5348,-3.5405,-3.5408,-3.5429,-3.5426,-3.5437,-3.5301,-3.5273,-3.5425,-3.5425,-3.5425,-3.5425,-3.5425,-3.5425,-3.4408,-3.4522,-3.4548,-3.4691,-3.4738,-3.4841,-3.4886,-3.4947,-3.5003,-3.513,-3.5208,-3.5246,-3.5313,-3.5413,-3.55,-3.5516,-3.5552,-3.5575,-3.5589,-3.5461,-3.5446,-3.543,-3.5405,-3.5582,-3.5582,-3.5719,-3.572,-3.5721]}]]